Flag for U.S.A. Weather past 2 weeks in Prudhoe Bay, Alaska, U.S.A.

Now
37 °F

Fog.


Feels Like: 31 °F
Forecast: 37 / 39 °F
Wind: 8 mph from Northeast

Location: Deadhorse Airport

Current Time: Sep 18, 2014 at 12:12:55 AM

Latest Report: Sep 17, 2014 at 11:53 PM


Visibility: 4 mi

Pressure: 29.49 "Hg

Humidity: 93%

Dew point: 35 °F

Location of Prudhoe BayLocation

Historic Weather in Prudhoe Bay — Graph

°F

Prudhoe Bay temperature yesterday

Maximum temperature yesterday: 40 °F (at 2:00 PM)
Minimum temperature yesterday: 35 °F (at 4:53 AM)
Average temperature yesterday: 37 °F

Past Weeks' High & Low Weather Summary

 TemperatureHumidityPressure
High54 °F (Sep 8, 3:53 PM)97% (Sep 8, 9:53 PM)30.32 "Hg (Sep 8, 9:53 PM)
Low25 °F (Sep 7, 6:53 AM)34% (Sep 8, 3:53 PM)29.48 "Hg (Sep 17, 10:53 PM)
Average36 °F85%29.96 "Hg
* Reported Sep 2 10:53 PM — Sep 17 10:53 PM, Prudhoe Bay, Weather by CustomWeather, © 2014

Note: Actual official high and low records may vary slightly from our data, if they occured in-between our weather recording intervals... More about our weather records

Advertising

Prudhoe Bay weather history for previous 24 hours

 ConditionsComfort  
Time TempWeatherWind HumidityBarometerVisibility
10:53 PM
Sep 17
37 °FFog.9 mph93%29.48 "Hg1 mi
9:53 PM37 °FFog.9 mph93%29.49 "Hg2 mi
9:01 PM37 °FFog.9 mph93%29.49 "Hg2 mi
8:53 PM37 °FFog.9 mph93%29.49 "Hg4 mi
7:53 PM38 °FLow clouds.8 mph93%29.49 "Hg10 mi
6:53 PM38 °FLow clouds.10 mph93%29.50 "Hg10 mi
5:53 PM39 °FLow clouds.8 mph89%29.50 "Hg10 mi
4:53 PM39 °FLow clouds.8 mph89%29.51 "Hg10 mi
3:53 PM40 °FLow clouds.5 mph86%29.52 "Hg10 mi
2:53 PM39 °FLow clouds.3 mph86%29.53 "Hg10 mi
2:00 PM40 °FChilly.7 mph86%29.53 "Hg10 mi
12:53 PM39 °FLow clouds.5 mph86%29.54 "Hg10 mi
11:53 AM38 °FLow clouds.3 mph90%29.54 "Hg10 mi
10:53 AM37 °FLow clouds.3 mph93%29.54 "Hg10 mi
9:53 AM37 °FMostly cloudy.3 mph93%29.54 "Hg10 mi
8:53 AM37 °FFog.3 mph93%29.54 "Hg1 mi
8:04 AM36 °FFog.3 mph97%29.54 "Hg1 mi
6:53 AM36 °FFog.5 mph92%29.54 "Hg1 mi
5:53 AM36 °FFog.3 mph92%29.54 "Hg1 mi
4:53 AM35 °FFog.No wind96%29.55 "Hg3 mi
3:53 AM36 °FFog.3 mph92%29.55 "Hg2 mi
2:53 AM36 °FFog.3 mph92%29.56 "Hg1 mi
1:53 AM36 °FFog.5 mph92%29.56 "Hg1 mi
12:53 AM36 °FFog.No wind97%29.57 "Hg1 mi
Weather by CustomWeather, © 2014

See weather overviewHow to use our weather pages